{"data":{"norad_id":51971,"epoch":"2026-09-20T02:22:25.027392Z","epoch_age_seconds":90738,"freshness":"FRESH","line1":"1 51971U 22025R   26263.09890078 -.00001037  00000+0 -21645-4 0  9998","line2":"2 51971  53.1604 199.7415 0001319  99.3278 260.7872 15.31710664250803","mean_motion":15.31710664,"eccentricity":0.0001319,"inclination_deg":53.1604,"raan_deg":199.7415,"arg_perigee_deg":99.3278,"mean_anomaly_deg":260.7872,"bstar":-2.1645e-5,"rev_number":25080,"period_min":94.012533427136,"perigee_km":469.80484389824,"apogee_km":471.61156926374,"semimajor_km":6848.845206581,"source":"CELESTRAK","updated_at":"2026-09-20T09:00:39.977857Z"}}